(°C)
(°C)
-3°
-3°
-2°
-1°
-1°
-1°
-1°
SSW
SSW
SSW
SSW
SSW
SSW
SSW
(km/h)
23-46
25-49
25-51
25-55
25-56
27-58
27-55
(mm)
0
0
0
0
0
0
0
(%)
0
0
0
0
0
12
25

Elevazione del sole

/ 7.6°
sun-icon
UV 0
08:12
18:15
Gibbosa calante (212°)
19:11
11:06

METAR per 55.03°N 82.6°E (UNNT)

Ora Condizioni Temperatura/
Punto di rugiada
Vento Visibilità Tempo Nuvole Pressione Cambiamento Grezzo
MVFR 3°C / -3°C 190º 12kt. Wind Shear present on Runway 25. >10km - Overcast 3000ft 1020 No Significant change. Runway 25: Clear and dry, 51-100% contamination with <1mm, friction coefficient 0.70. Runway 16: Clear and dry, 51-100% contamination with <1mm, friction coefficient 0.70. UNNT 230130Z 19006MPS 9999 OVC030 03/M03 Q1020 WS R25 R25/090070 R16/090070 NOSIG RMK QFE755/1006
VFR 3°C / -3°C 200º 14kt. Wind Shear present on Runway 25. >10km - Overcast 3100ft 1020 No Significant change. Runway 25: Clear and dry, 51-100% contamination with <1mm, friction coefficient 0.70. Runway 16: Clear and dry, 51-100% contamination with <1mm, friction coefficient 0.70. UNNT 230100Z 20007MPS 9999 OVC031 03/M03 Q1020 WS R25 R25/090070 R16/090070 NOSIG RMK QFE755/1006
VFR 3°C / -3°C 200º 14kt Gust 23kt >10km - Overcast 4200ft 1020 No Significant change. Runway 25: Clear and dry, 51-100% contamination with <1mm, friction coefficient 0.70. Runway 16: Clear and dry, 51-100% contamination with <1mm, friction coefficient 0.70. UNNT 230030Z 20007G12MPS 9999 OVC042 03/M03 Q1020 R25/090070 R16/090070 NOSIG RMK QFE755/1006
VFR 3°C / -4°C 190º 16kt >10km - Overcast 4200ft 1020 No Significant change. Runway 25: Clear and dry, 51-100% contamination with <1mm, friction coefficient 0.70. Runway 16: Clear and dry, 51-100% contamination with <1mm, friction coefficient 0.70. UNNT 230000Z 19008MPS 9999 OVC042 03/M04 Q1020 R25/090070 R16/090070 NOSIG RMK QFE755/1007
VFR 3°C / -4°C 190º 14kt. Wind Shear present on Runway 25. >10km - Broken Clouds 4600ft 1020 No Significant change. Runway 25: Clear and dry, 51-100% contamination with <1mm, friction coefficient 0.70. Runway 16: Clear and dry, 51-100% contamination with <1mm, friction coefficient 0.70. UNNT 222330Z 19007MPS 9999 BKN046 03/M04 Q1020 WS R25 R25/090070 R16/090070 NOSIG RMK QFE755/1007
VFR 3°C / -5°C 190º 16kt >10km - Clouds and Visibility OK 1020 No Significant change. Runway 25: Clear and dry, 51-100% contamination with <1mm, friction coefficient 0.70. Runway 16: Clear and dry, 51-100% contamination with <1mm, friction coefficient 0.70. UNNT 222300Z 19008MPS CAVOK 03/M05 Q1020 R25/090070 R16/090070 NOSIG RMK QFE755/1007
VFR 3°C / -5°C 190º 14kt >10km - Clouds and Visibility OK 1020 No Significant change. Runway 25: Clear and dry, 51-100% contamination with <1mm, friction coefficient 0.70. Runway 16: Clear and dry, 51-100% contamination with <1mm, friction coefficient 0.70. UNNT 222230Z 19007MPS CAVOK 03/M05 Q1020 R25/090070 R16/090070 NOSIG RMK QFE755/1007
VFR 3°C / -5°C 190º 14kt >10km - Clouds and Visibility OK 1020 No Significant change. Runway 25: Clear and dry, 51-100% contamination with <1mm, friction coefficient 0.70. Runway 16: Clear and dry, 51-100% contamination with <1mm, friction coefficient 0.70. UNNT 222200Z 19007MPS CAVOK 03/M05 Q1020 R25/090070 R16/090070 NOSIG RMK QFE755/1007
VFR 3°C / -5°C 190º 12kt >10km - Clouds and Visibility OK 1021 No Significant change. Runway 25: Clear and dry, 51-100% contamination with <1mm, friction coefficient 0.70. Runway 16: Clear and dry, 51-100% contamination with <1mm, friction coefficient 0.70. UNNT 222130Z 19006MPS CAVOK 03/M05 Q1021 R25/090070 R16/090070 NOSIG RMK QFE755/1007
VFR 3°C / -4°C 190º 12kt >10km - Clouds and Visibility OK 1021 No Significant change. Runway 25: Clear and dry, 51-100% contamination with <1mm, friction coefficient 0.70. Runway 16: Clear and dry, 51-100% contamination with <1mm, friction coefficient 0.70. UNNT 222100Z 19006MPS CAVOK 03/M04 Q1021 R25/090070 R16/090070 NOSIG RMK QFE755/1007
VFR 3°C / -4°C 190º 12kt >10km - Clouds and Visibility OK 1021 No Significant change. Runway 25: Clear and dry, 51-100% contamination with <1mm, friction coefficient 0.70. Runway 16: Clear and dry, 51-100% contamination with <1mm, friction coefficient 0.70. UNNT 222030Z 19006MPS CAVOK 03/M04 Q1021 R25/090070 R16/090070 NOSIG RMK QFE756/1008
VFR 3°C / -4°C 190º 12kt >10km - Clouds and Visibility OK 1021 No Significant change. Runway 25: Clear and dry, 51-100% contamination with <1mm, friction coefficient 0.70. Runway 16: Clear and dry, 51-100% contamination with <1mm, friction coefficient 0.70. UNNT 222000Z 19006MPS CAVOK 03/M04 Q1021 R25/090070 R16/090070 NOSIG RMK QFE756/1008
VFR 3°C / -4°C 190º 12kt >10km - Clouds and Visibility OK 1021 No Significant change. Runway 25: Clear and dry, 51-100% contamination with <1mm, friction coefficient 0.70. Runway 16: Clear and dry, 51-100% contamination with <1mm, friction coefficient 0.70. UNNT 221930Z 19006MPS CAVOK 03/M04 Q1021 R25/090070 R16/090070 NOSIG RMK QFE756/1008
VFR 3°C / -4°C 190º 12kt >10km - Clouds and Visibility OK 1021 No Significant change. Runway 25: Clear and dry, 51-100% contamination with <1mm, friction coefficient 0.70. Runway 16: Clear and dry, 51-100% contamination with <1mm, friction coefficient 0.70. UNNT 221900Z 19006MPS CAVOK 03/M04 Q1021 R25/090070 R16/090070 NOSIG RMK QFE756/1008
VFR 3°C / -3°C 190º 12kt >10km - Clouds and Visibility OK 1021 No Significant change. Runway 25: Clear and dry, 51-100% contamination with <1mm, friction coefficient 0.70. Runway 16: Clear and dry, 51-100% contamination with <1mm, friction coefficient 0.70. UNNT 221830Z 19006MPS CAVOK 03/M03 Q1021 R25/090070 R16/090070 NOSIG RMK QFE756/1008
VFR 3°C / -3°C 190º 10kt >10km - Clouds and Visibility OK 1022 No Significant change. Runway 25: Clear and dry, 51-100% contamination with <1mm, friction coefficient 0.70. Runway 16: Clear and dry, 51-100% contamination with <1mm, friction coefficient 0.70. UNNT 221800Z 19005MPS CAVOK 03/M03 Q1022 R25/090070 R16/090070 NOSIG RMK QFE756/1008
VFR 3°C / -3°C 200º 12kt >10km - Clouds and Visibility OK 1022 No Significant change. Runway 25: Clear and dry, 51-100% contamination with <1mm, friction coefficient 0.70. Runway 16: Clear and dry, 51-100% contamination with <1mm, friction coefficient 0.70. UNNT 221730Z 20006MPS CAVOK 03/M03 Q1022 R25/090070 R16/090070 NOSIG RMK QFE756/1008
VFR 3°C / -3°C 190º 10kt >10km - Clouds and Visibility OK 1022 No Significant change. Runway 25: Clear and dry, 51-100% contamination with <1mm, friction coefficient 0.70. Runway 16: Clear and dry, 51-100% contamination with <1mm, friction coefficient 0.70. UNNT 221700Z 19005MPS CAVOK 03/M03 Q1022 R25/090070 R16/090070 NOSIG RMK QFE756/1008
VFR 3°C / -3°C 200º 10kt >10km - Clouds and Visibility OK 1022 No Significant change. Runway 25: Clear and dry, 51-100% contamination with <1mm, friction coefficient 0.70. Runway 16: Clear and dry, 51-100% contamination with <1mm, friction coefficient 0.70. UNNT 221630Z 20005MPS CAVOK 03/M03 Q1022 R25/090070 R16/090070 NOSIG RMK QFE756/1009
VFR 3°C / -3°C 200º 10kt >10km - Clouds and Visibility OK 1022 No Significant change. Runway 25: Clear and dry, 51-100% contamination with <1mm, friction coefficient 0.70. Runway 16: Clear and dry, 51-100% contamination with <1mm, friction coefficient 0.70. UNNT 221600Z 20005MPS CAVOK 03/M03 Q1022 R25/090070 R16/090070 NOSIG RMK QFE756/1009
VFR 3°C / -3°C 200º 10kt. Wind Shear present on Runway 25. >10km - Clouds and Visibility OK 1022 No Significant change. Runway 25: Clear and dry, 51-100% contamination with <1mm, friction coefficient 0.70. Runway 16: Clear and dry, 51-100% contamination with <1mm, friction coefficient 0.70. UNNT 221530Z 20005MPS CAVOK 03/M03 Q1022 WS R25 R25/090070 R16/090070 NOSIG RMK QFE756/1008
VFR 4°C / -3°C 220º 14kt >10km - Clouds and Visibility OK 1022 No Significant change. Runway 25: Clear and dry, 51-100% contamination with <1mm, friction coefficient 0.70. Runway 16: deposit not reported, . UNNT 221500Z 22007MPS CAVOK 04/M03 Q1022 R25/090070 R16/////// NOSIG RMK QFE756/1008
VFR 4°C / -3°C 220º 14kt >10km - Clouds and Visibility OK 1021 No Significant change. Runway 25: Clear and dry, 51-100% contamination with <1mm, friction coefficient 0.70. Runway 16: deposit not reported, . UNNT 221430Z 22007MPS CAVOK 04/M03 Q1021 R25/090070 R16/////// NOSIG RMK QFE756/1008
VFR 4°C / -3°C 230º 12kt Gust 21kt >10km - Overcast 3600ft 1021 No Significant change. Runway 25: Clear and dry, 51-100% contamination with <1mm, friction coefficient 0.70. Runway 16: deposit not reported, . UNNT 221400Z 23006G11MPS 9999 OVC036 04/M03 Q1021 R25/090070 R16/////// NOSIG RMK QFE756/1008

MVFR

3°C / -3°C

[Più]
Vento 190º 12kt. Wind Shear present on Runway 25.
Visibilità >10km
Tempo -
Nuvole Overcast 3000ft
Pressione 1020
Cambiamento No Significant change. Runway 25: Clear and dry, 51-100% contamination with <1mm, friction coefficient 0.70. Runway 16: Clear and dry, 51-100% contamination with <1mm, friction coefficient 0.70.
Grezzo UNNT 230130Z 19006MPS 9999 OVC030 03/M03 Q1020 WS R25 R25/090070 R16/090070 NOSIG RMK QFE755/1006

VFR

3°C / -3°C

[Più]
Vento 200º 14kt. Wind Shear present on Runway 25.
Visibilità >10km
Tempo -
Nuvole Overcast 3100ft
Pressione 1020
Cambiamento No Significant change. Runway 25: Clear and dry, 51-100% contamination with <1mm, friction coefficient 0.70. Runway 16: Clear and dry, 51-100% contamination with <1mm, friction coefficient 0.70.
Grezzo UNNT 230100Z 20007MPS 9999 OVC031 03/M03 Q1020 WS R25 R25/090070 R16/090070 NOSIG RMK QFE755/1006

VFR

3°C / -3°C

[Più]
Vento 200º 14kt Gust 23kt
Visibilità >10km
Tempo -
Nuvole Overcast 4200ft
Pressione 1020
Cambiamento No Significant change. Runway 25: Clear and dry, 51-100% contamination with <1mm, friction coefficient 0.70. Runway 16: Clear and dry, 51-100% contamination with <1mm, friction coefficient 0.70.
Grezzo UNNT 230030Z 20007G12MPS 9999 OVC042 03/M03 Q1020 R25/090070 R16/090070 NOSIG RMK QFE755/1006

VFR

3°C / -4°C

[Più]
Vento 190º 16kt
Visibilità >10km
Tempo -
Nuvole Overcast 4200ft
Pressione 1020
Cambiamento No Significant change. Runway 25: Clear and dry, 51-100% contamination with <1mm, friction coefficient 0.70. Runway 16: Clear and dry, 51-100% contamination with <1mm, friction coefficient 0.70.
Grezzo UNNT 230000Z 19008MPS 9999 OVC042 03/M04 Q1020 R25/090070 R16/090070 NOSIG RMK QFE755/1007

VFR

3°C / -4°C

[Più]
Vento 190º 14kt. Wind Shear present on Runway 25.
Visibilità >10km
Tempo -
Nuvole Broken Clouds 4600ft
Pressione 1020
Cambiamento No Significant change. Runway 25: Clear and dry, 51-100% contamination with <1mm, friction coefficient 0.70. Runway 16: Clear and dry, 51-100% contamination with <1mm, friction coefficient 0.70.
Grezzo UNNT 222330Z 19007MPS 9999 BKN046 03/M04 Q1020 WS R25 R25/090070 R16/090070 NOSIG RMK QFE755/1007

VFR

3°C / -5°C

[Più]
Vento 190º 16kt
Visibilità >10km
Tempo -
Nuvole Clouds and Visibility OK
Pressione 1020
Cambiamento No Significant change. Runway 25: Clear and dry, 51-100% contamination with <1mm, friction coefficient 0.70. Runway 16: Clear and dry, 51-100% contamination with <1mm, friction coefficient 0.70.
Grezzo UNNT 222300Z 19008MPS CAVOK 03/M05 Q1020 R25/090070 R16/090070 NOSIG RMK QFE755/1007

VFR

3°C / -5°C

[Più]
Vento 190º 14kt
Visibilità >10km
Tempo -
Nuvole Clouds and Visibility OK
Pressione 1020
Cambiamento No Significant change. Runway 25: Clear and dry, 51-100% contamination with <1mm, friction coefficient 0.70. Runway 16: Clear and dry, 51-100% contamination with <1mm, friction coefficient 0.70.
Grezzo UNNT 222230Z 19007MPS CAVOK 03/M05 Q1020 R25/090070 R16/090070 NOSIG RMK QFE755/1007

VFR

3°C / -5°C

[Più]
Vento 190º 14kt
Visibilità >10km
Tempo -
Nuvole Clouds and Visibility OK
Pressione 1020
Cambiamento No Significant change. Runway 25: Clear and dry, 51-100% contamination with <1mm, friction coefficient 0.70. Runway 16: Clear and dry, 51-100% contamination with <1mm, friction coefficient 0.70.
Grezzo UNNT 222200Z 19007MPS CAVOK 03/M05 Q1020 R25/090070 R16/090070 NOSIG RMK QFE755/1007

VFR

3°C / -5°C

[Più]
Vento 190º 12kt
Visibilità >10km
Tempo -
Nuvole Clouds and Visibility OK
Pressione 1021
Cambiamento No Significant change. Runway 25: Clear and dry, 51-100% contamination with <1mm, friction coefficient 0.70. Runway 16: Clear and dry, 51-100% contamination with <1mm, friction coefficient 0.70.
Grezzo UNNT 222130Z 19006MPS CAVOK 03/M05 Q1021 R25/090070 R16/090070 NOSIG RMK QFE755/1007

VFR

3°C / -4°C

[Più]
Vento 190º 12kt
Visibilità >10km
Tempo -
Nuvole Clouds and Visibility OK
Pressione 1021
Cambiamento No Significant change. Runway 25: Clear and dry, 51-100% contamination with <1mm, friction coefficient 0.70. Runway 16: Clear and dry, 51-100% contamination with <1mm, friction coefficient 0.70.
Grezzo UNNT 222100Z 19006MPS CAVOK 03/M04 Q1021 R25/090070 R16/090070 NOSIG RMK QFE755/1007

VFR

3°C / -4°C

[Più]
Vento 190º 12kt
Visibilità >10km
Tempo -
Nuvole Clouds and Visibility OK
Pressione 1021
Cambiamento No Significant change. Runway 25: Clear and dry, 51-100% contamination with <1mm, friction coefficient 0.70. Runway 16: Clear and dry, 51-100% contamination with <1mm, friction coefficient 0.70.
Grezzo UNNT 222030Z 19006MPS CAVOK 03/M04 Q1021 R25/090070 R16/090070 NOSIG RMK QFE756/1008

VFR

3°C / -4°C

[Più]
Vento 190º 12kt
Visibilità >10km
Tempo -
Nuvole Clouds and Visibility OK
Pressione 1021
Cambiamento No Significant change. Runway 25: Clear and dry, 51-100% contamination with <1mm, friction coefficient 0.70. Runway 16: Clear and dry, 51-100% contamination with <1mm, friction coefficient 0.70.
Grezzo UNNT 222000Z 19006MPS CAVOK 03/M04 Q1021 R25/090070 R16/090070 NOSIG RMK QFE756/1008

VFR

3°C / -4°C

[Più]
Vento 190º 12kt
Visibilità >10km
Tempo -
Nuvole Clouds and Visibility OK
Pressione 1021
Cambiamento No Significant change. Runway 25: Clear and dry, 51-100% contamination with <1mm, friction coefficient 0.70. Runway 16: Clear and dry, 51-100% contamination with <1mm, friction coefficient 0.70.
Grezzo UNNT 221930Z 19006MPS CAVOK 03/M04 Q1021 R25/090070 R16/090070 NOSIG RMK QFE756/1008

VFR

3°C / -4°C

[Più]
Vento 190º 12kt
Visibilità >10km
Tempo -
Nuvole Clouds and Visibility OK
Pressione 1021
Cambiamento No Significant change. Runway 25: Clear and dry, 51-100% contamination with <1mm, friction coefficient 0.70. Runway 16: Clear and dry, 51-100% contamination with <1mm, friction coefficient 0.70.
Grezzo UNNT 221900Z 19006MPS CAVOK 03/M04 Q1021 R25/090070 R16/090070 NOSIG RMK QFE756/1008

VFR

3°C / -3°C

[Più]
Vento 190º 12kt
Visibilità >10km
Tempo -
Nuvole Clouds and Visibility OK
Pressione 1021
Cambiamento No Significant change. Runway 25: Clear and dry, 51-100% contamination with <1mm, friction coefficient 0.70. Runway 16: Clear and dry, 51-100% contamination with <1mm, friction coefficient 0.70.
Grezzo UNNT 221830Z 19006MPS CAVOK 03/M03 Q1021 R25/090070 R16/090070 NOSIG RMK QFE756/1008

VFR

3°C / -3°C

[Più]
Vento 190º 10kt
Visibilità >10km
Tempo -
Nuvole Clouds and Visibility OK
Pressione 1022
Cambiamento No Significant change. Runway 25: Clear and dry, 51-100% contamination with <1mm, friction coefficient 0.70. Runway 16: Clear and dry, 51-100% contamination with <1mm, friction coefficient 0.70.
Grezzo UNNT 221800Z 19005MPS CAVOK 03/M03 Q1022 R25/090070 R16/090070 NOSIG RMK QFE756/1008

VFR

3°C / -3°C

[Più]
Vento 200º 12kt
Visibilità >10km
Tempo -
Nuvole Clouds and Visibility OK
Pressione 1022
Cambiamento No Significant change. Runway 25: Clear and dry, 51-100% contamination with <1mm, friction coefficient 0.70. Runway 16: Clear and dry, 51-100% contamination with <1mm, friction coefficient 0.70.
Grezzo UNNT 221730Z 20006MPS CAVOK 03/M03 Q1022 R25/090070 R16/090070 NOSIG RMK QFE756/1008

VFR

3°C / -3°C

[Più]
Vento 190º 10kt
Visibilità >10km
Tempo -
Nuvole Clouds and Visibility OK
Pressione 1022
Cambiamento No Significant change. Runway 25: Clear and dry, 51-100% contamination with <1mm, friction coefficient 0.70. Runway 16: Clear and dry, 51-100% contamination with <1mm, friction coefficient 0.70.
Grezzo UNNT 221700Z 19005MPS CAVOK 03/M03 Q1022 R25/090070 R16/090070 NOSIG RMK QFE756/1008

VFR

3°C / -3°C

[Più]
Vento 200º 10kt
Visibilità >10km
Tempo -
Nuvole Clouds and Visibility OK
Pressione 1022
Cambiamento No Significant change. Runway 25: Clear and dry, 51-100% contamination with <1mm, friction coefficient 0.70. Runway 16: Clear and dry, 51-100% contamination with <1mm, friction coefficient 0.70.
Grezzo UNNT 221630Z 20005MPS CAVOK 03/M03 Q1022 R25/090070 R16/090070 NOSIG RMK QFE756/1009

VFR

3°C / -3°C

[Più]
Vento 200º 10kt
Visibilità >10km
Tempo -
Nuvole Clouds and Visibility OK
Pressione 1022
Cambiamento No Significant change. Runway 25: Clear and dry, 51-100% contamination with <1mm, friction coefficient 0.70. Runway 16: Clear and dry, 51-100% contamination with <1mm, friction coefficient 0.70.
Grezzo UNNT 221600Z 20005MPS CAVOK 03/M03 Q1022 R25/090070 R16/090070 NOSIG RMK QFE756/1009

VFR

3°C / -3°C

[Più]
Vento 200º 10kt. Wind Shear present on Runway 25.
Visibilità >10km
Tempo -
Nuvole Clouds and Visibility OK
Pressione 1022
Cambiamento No Significant change. Runway 25: Clear and dry, 51-100% contamination with <1mm, friction coefficient 0.70. Runway 16: Clear and dry, 51-100% contamination with <1mm, friction coefficient 0.70.
Grezzo UNNT 221530Z 20005MPS CAVOK 03/M03 Q1022 WS R25 R25/090070 R16/090070 NOSIG RMK QFE756/1008

VFR

4°C / -3°C

[Più]
Vento 220º 14kt
Visibilità >10km
Tempo -
Nuvole Clouds and Visibility OK
Pressione 1022
Cambiamento No Significant change. Runway 25: Clear and dry, 51-100% contamination with <1mm, friction coefficient 0.70. Runway 16: deposit not reported, .
Grezzo UNNT 221500Z 22007MPS CAVOK 04/M03 Q1022 R25/090070 R16/////// NOSIG RMK QFE756/1008

VFR

4°C / -3°C

[Più]
Vento 220º 14kt
Visibilità >10km
Tempo -
Nuvole Clouds and Visibility OK
Pressione 1021
Cambiamento No Significant change. Runway 25: Clear and dry, 51-100% contamination with <1mm, friction coefficient 0.70. Runway 16: deposit not reported, .
Grezzo UNNT 221430Z 22007MPS CAVOK 04/M03 Q1021 R25/090070 R16/////// NOSIG RMK QFE756/1008

VFR

4°C / -3°C

[Più]
Vento 230º 12kt Gust 21kt
Visibilità >10km
Tempo -
Nuvole Overcast 3600ft
Pressione 1021
Cambiamento No Significant change. Runway 25: Clear and dry, 51-100% contamination with <1mm, friction coefficient 0.70. Runway 16: deposit not reported, .
Grezzo UNNT 221400Z 23006G11MPS 9999 OVC036 04/M03 Q1021 R25/090070 R16/////// NOSIG RMK QFE756/1008

TAF per 55.03°N 82.6°E (UNNT)

From till


From till Wind 190º 14kt. Gust 29kt. Visibility 8000m. Broken Clouds 4000ft.
Becoming from till Wind 210º 23kt. Gust 43kt. Visibility 8000m. Broken Clouds 2000ft.
Temporarly from till Light Showers Rain . Broken Clouds 1600ft.
Becoming from till Wind 220º 14kt. Gust 29kt. Visibility 8000m. Broken Clouds 2000ft.

Grezzo: TAF UNNT 222300Z 2300/2324 19007G15MPS 8000 BKN040CB BECMG 2302/2303 21012G22MPS BKN020CB TEMPO 2303/2324 -SHRA BKN016CB BECMG 2316/2318 22007G15MPS

Tempo in atto per 55.03°N 82.6°E: immagine satellitare e pioggia

Il segnaposto è situato a 55.03°N 82.6°E. [Più]

L'immagine satellitare in tempo reale combina la luce visibile durante il giorno con la radiazione infrarossa durante la notte. Di notte l'immagine non è scura poiché i raggi infrarossi possono rilevare differenze di temperatura. Purtroppo, le nuvole basse e la nebbia sono difficili da distinguere dalla temperatura del suolo e possono pertanto essere quasi invisibili durante la notte. Le immagini satellitari Meteosat per l'Europa vengono aggiornate in tempo reale ogni 5 minuti. Le immagini GOES-16 / GOES-17 (Nord e Sud America) e Himawari (Asia) vengono aggiornate ogni 10 minuti.

Copyright 2021 EUMETSAT / meteoblue. / Copyright 2021 meteoblue

Radar e nowcasting per 55.03°N 82.6°E

Pioviggine
Lieve
Moderato
Forte
Molto forte
Grandine

Il segnaposto è situato a 55.03°N 82.6°E. Questa animazione mostra il radar delle precipitazioni per l'ultima ora, nonché una previsione 1h. Una pioviggine o una leggera caduta di neve potrebbero essere invisibili per il radar. L'intensità delle precipitazioni è codificata a colori, dal blu chiaro all'arancione.